KI4BSX Weather Reports


time (UTC)temp
C
wind
direction
speed
KPH
gust
KPH
rain 1hr
cm
rain 24hr
cm
rain mn
cm
humidity
%
barometer
mb
20260509022018 15 131 0.0 0.0 0.00 0.00 0.00 93 1017.3
20260509021515 15 130 0.0 0.0 0.00 0.00 0.00 93 1017.2
20260509021012 15 131 0.0 0.0 0.00 0.00 0.00 93 1017.3
20260509020510 15 131 0.0 0.0 0.00 0.00 0.00 93 1017.4
20260509020007 15 131 0.0 0.0 0.00 0.00 0.00 93 1017.3
20260509015506 15 131 0.0 0.0 0.00 0.00 0.00 93 1017.1
20260509015002 15 130 0.0 0.0 0.00 0.00 0.00 92 1017.1
20260509014459 15 131 0.0 1.6 0.00 0.00 0.00 92 1017.2
20260509013955 15 131 0.0 0.0 0.00 0.00 0.00 92 1017.5
20260509013452 15 130 0.0 0.0 0.00 0.00 0.00 92 1017.2
20260509012948 15 131 0.0 0.0 0.00 0.00 0.00 92 1017.1
20260509012444 15 131 0.0 0.0 0.00 0.00 0.00 91 1017.1
20260509011941 15 131 0.0 0.0 0.00 0.00 0.00 91 1017.0
20260509011439 15 131 0.0 0.0 0.00 0.00 0.00 91 1017.1
20260509010937 15 131 0.0 0.0 0.00 0.00 0.00 90 1017.1
20260509010434 15 131 0.0 0.0 0.00 0.00 0.00 90 1016.7
20260509005930 16 131 0.0 0.0 0.00 0.00 0.00 90 1016.9
20260509005429 16 131 0.0 0.0 0.00 0.00 0.00 90 1016.9
20260509004923 16 131 0.0 0.0 0.00 0.00 0.00 89 1016.8
20260509004420 16 131 0.0 0.0 0.00 0.00 0.00 89 1016.9
20260509003918 16 131 0.0 0.0 0.00 0.00 0.00 89 1016.8
20260509003415 16 131 0.0 0.0 0.00 0.00 0.00 88 1016.6
20260509002912 16 130 1.6 1.6 0.00 0.00 0.00 88 1016.4
20260509002410 16 133 0.0 0.0 0.00 0.00 0.00 87 1016.6
20260509001907 16 134 0.0 0.0 0.00 0.00 0.00 87 1016.8
20260509001403 16 134 0.0 0.0 0.00 0.00 0.00 86 1016.8
20260509000900 16 133 0.0 0.0 0.00 0.00 0.00 86 1016.6
20260509000358 17 134 0.0 0.0 0.00 0.00 0.00 85 1016.8
20260508235854 17 133 0.0 0.0 0.00 0.00 0.00 85 1016.7
20260508235351 17 134 0.0 0.0 0.00 0.00 0.00 84 1016.7
20260508234848 17 134 0.0 0.0 0.00 0.00 0.00 84 1016.8
20260508234344 17 134 0.0 0.0 0.00 0.00 0.00 83 1016.7
20260508233843 17 134 0.0 0.0 0.00 0.00 0.00 82 1016.6
20260508233342 17 134 0.0 0.0 0.00 0.00 0.00 82 1016.5
20260508232839 17 134 0.0 0.0 0.00 0.00 0.00 81 1016.3
20260508232335 18 134 0.0 0.0 0.00 0.00 0.00 81 1016.4
20260508231834 18 134 0.0 0.0 0.00 0.00 0.00 80 1016.5
20260508231329 18 134 0.0 0.0 0.00 0.00 0.00 79 1016.6
20260508230826 18 134 0.0 0.0 0.00 0.00 0.00 78 1016.7
20260508230322 18 133 0.0 0.0 0.00 0.00 0.00 77 1016.7
20260508225821 18 134 0.0 0.0 0.00 0.00 0.00 76 1016.7
20260508225317 18 134 0.0 0.0 0.00 0.00 0.00 75 1016.7
20260508224815 18 134 0.0 0.0 0.00 0.00 0.00 75 1016.6
20260508224312 18 134 0.0 0.0 0.00 0.00 0.00 74 1016.6
20260508223810 18 133 0.0 0.0 0.00 0.00 0.00 74 1016.8
20260508223307 19 127 0.0 0.0 0.00 0.00 0.00 75 1016.6
20260508222804 19 126 0.0 0.0 0.00 0.00 0.00 74 1016.5
20260508222301 19 127 0.0 0.0 0.00 0.00 0.00 74 1016.9
20260508221758 19 127 0.0 0.0 0.00 0.00 0.00 73 1016.7
20260508221253 19 126 0.0 0.0 0.00 0.00 0.00 73 1016.8
20260508220750 19 126 0.0 0.0 0.00 0.00 0.00 73 1016.6
20260508220246 20 125 0.0 0.0 0.00 0.00 0.00 72 1016.6
20260508215737 20 120 0.0 0.0 0.00 0.00 0.00 71 1016.7
20260508215234 20 120 0.0 0.0 0.00 0.00 0.00 70 1016.8
20260508214731 20 119 0.0 0.0 0.00 0.00 0.00 70 1016.6
20260508214228 20 119 0.0 0.0 0.00 0.00 0.00 68 1016.6
20260508213724 20 118 0.0 0.0 0.00 0.00 0.00 68 1016.7
20260508213221 20 119 0.0 0.0 0.00 0.00 0.00 67 1016.6
20260508212718 20 119 0.0 0.0 0.00 0.00 0.00 65 1016.8
20260508212214 20 117 0.0 0.0 0.00 0.00 0.00 64 1016.7
20260508211710 20 110 0.0 1.6 0.00 0.00 0.00 62 1016.7
20260508211206 20 129 0.0 0.0 0.00 0.00 0.00 62 1016.6
20260508210703 21 50 0.0 0.0 0.00 0.00 0.00 60 1017.0
20260508210200 21 50 0.0 0.0 0.00 0.00 0.00 59 1016.9
20260508205657 21 117 0.0 3.2 0.00 0.00 0.00 59 1016.7
20260508205154 21 249 1.6 1.6 0.00 0.00 0.00 62 1016.7
20260508204650 21 76 0.0 3.2 0.00 0.00 0.00 61 1016.7
20260508204146 21 64 1.6 1.6 0.00 0.00 0.00 60 1016.8
20260508203642 21 140 1.6 3.2 0.00 0.00 0.00 59 1016.6
20260508203138 21 338 0.0 3.2 0.00 0.00 0.00 59 1016.7
20260508202635 21 130 0.0 3.2 0.00 0.00 0.00 58 1016.9
20260508202132 21 333 1.6 3.2 0.00 0.00 0.00 58 1017.2
20260508201629 22 60 1.6 3.2 0.00 0.00 0.00 58 1017.0
20260508201125 22 316 0.0 3.2 0.00 0.00 0.00 57 1016.9
20260508200622 22 94 0.0 1.6 0.00 0.00 0.00 57 1017.1
20260508200118 22 145 0.0 1.6 0.00 0.00 0.00 56 1017.2
20260508195615 22 49 1.6 3.2 0.00 0.00 0.00 56 1017.2
20260508195112 21 289 0.0 6.4 0.00 0.00 0.00 56 1017.4
20260508194608 21 39 0.0 1.6 0.00 0.00 0.00 57 1017.4
20260508194105 21 56 1.6 6.4 0.00 0.00 0.00 58 1017.3
20260508193602 21 112 0.0 4.8 0.00 0.00 0.00 57 1017.5
20260508193059 22 96 1.6 1.6 0.00 0.00 0.00 57 1017.4
20260508192555 22 133 1.6 1.6 0.00 0.00 0.00 55 1017.7
20260508192053 21 74 0.0 3.2 0.00 0.00 0.00 55 1017.8
20260508191549 22 319 6.4 9.7 0.00 0.00 0.00 55 1017.9
20260508191046 22 107 1.6 6.4 0.00 0.00 0.00 56 1017.8
20260508190543 22 85 1.6 4.8 0.00 0.00 0.00 55 1017.9
20260508190039 22 311 0.0 1.6 0.00 0.00 0.00 55 1017.9
20260508185537 22 334 1.6 1.6 0.00 0.00 0.00 57 1018.0
20260508185034 22 91 1.6 1.6 0.00 0.00 0.00 56 1018.2
20260508184532 21 240 1.6 3.2 0.00 0.00 0.00 56 1018.3
20260508184028 21 105 3.2 4.8 0.00 0.00 0.00 57 1018.3
20260508183525 21 28 0.0 1.6 0.00 0.00 0.00 57 1018.1
20260508183021 21 68 1.6 4.8 0.00 0.00 0.00 57 1018.1
20260508182518 21 80 3.2 11.3 0.00 0.00 0.00 57 1018.4
20260508182014 22 29 1.6 4.8 0.00 0.00 0.00 59 1018.5
20260508181509 22 64 0.0 1.6 0.00 0.00 0.00 59 1018.5
20260508181007 21 81 1.6 4.8 0.00 0.00 0.00 57 1018.6
20260508180504 22 211 1.6 4.8 0.00 0.00 0.00 57 1018.9
20260508180000 22 17 1.6 6.4 0.00 0.00 0.00 57 1018.6
20260508175456 22 192 3.2 3.2 0.00 0.00 0.00 56 1018.7
20260508174954 22 310 3.2 4.8 0.00 0.00 0.00 58 1018.8
20260508174452 21 315 3.2 3.2 0.00 0.00 0.00 58 1018.7
20260508173948 20 318 3.2 4.8 0.00 0.00 0.00 58 1018.9
20260508173445 21 208 3.2 6.4 0.00 0.00 0.00 57 1019.2
20260508172941 21 190 3.2 9.7 0.00 0.00 0.00 59 1019.0
20260508172439 21 46 1.6 9.7 0.00 0.00 0.00 60 1019.1
20260508171935 21 84 6.4 6.4 0.00 0.00 0.00 59 1019.2
20260508171431 21 120 3.2 6.4 0.00 0.00 0.00 60 1019.2
20260508170928 21 97 0.0 3.2 0.00 0.00 0.00 61 1019.6
20260508170426 21 126 1.6 4.8 0.00 0.00 0.00 59 1019.2
20260508165922 21 71 6.4 9.7 0.00 0.00 0.00 61 1019.4
20260508165420 21 354 1.6 1.6 0.00 0.00 0.00 62 1019.6
20260508164915 21 54 3.2 4.8 0.00 0.00 0.00 64 1019.6
20260508164413 21 60 6.4 9.7 0.00 0.00 0.00 65 1019.6
20260508163910 20 94 1.6 3.2 0.00 0.00 0.00 65 1019.8
20260508163408 20 45 3.2 9.7 0.00 0.00 0.00 66 1019.7
20260508162903 20 0 3.2 6.4 0.00 0.00 0.00 65 1019.9
20260508162401 20 176 1.6 4.8 0.00 0.00 0.00 67 1019.9
20260508161857 21 197 6.4 9.7 0.00 0.00 0.00 65 1019.9
20260508161355 20 74 0.0 1.6 0.00 0.00 0.00 67 1020.1
20260508160852 20 60 3.2 4.8 0.00 0.00 0.00 67 1020.3
20260508160351 20 29 0.0 1.6 0.00 0.00 0.00 67 1020.1
20260508155846 19 264 4.8 6.4 0.00 0.00 0.00 67 1020.3
20260508155344 20 71 3.2 9.7 0.00 0.00 0.00 68 1020.4
20260508154841 20 81 3.2 3.2 0.00 0.00 0.00 69 1020.4
20260508154338 19 147 4.8 9.7 0.00 0.00 0.00 69 1020.4
20260508153834 19 150 1.6 3.2 0.00 0.00 0.00 71 1020.3
20260508153332 19 147 0.0 4.8 0.00 0.00 0.00 72 1020.4
20260508152828 19 149 1.6 4.8 0.00 0.00 0.00 73 1020.8
20260508152324 18 233 1.6 4.8 0.00 0.00 0.00 74 1020.8
20260508151821 19 147 3.2 3.2 0.00 0.00 0.00 76 1020.6
20260508151318 19 147 1.6 3.2 0.00 0.00 0.00 79 1020.8
20260508150814 18 225 0.0 4.8 0.00 0.00 0.00 80 1020.8
20260508150311 18 269 4.8 6.4 0.00 0.00 0.00 81 1021.0
20260508145807 18 152 1.6 3.2 0.00 0.00 0.00 83 1020.9
20260508145306 18 150 1.6 4.8 0.00 0.00 0.00 85 1020.8
20260508144801 18 150 1.6 1.6 0.00 0.00 0.00 87 1020.6
20260508144258 18 150 0.0 1.6 0.00 0.00 0.00 89 1020.8
20260508143756 17 151 0.0 3.2 0.00 0.00 0.00 89 1020.6
20260508143252 17 146 3.2 3.2 0.00 0.00 0.00 91 1020.5
20260508142749 17 148 3.2 6.4 0.00 0.00 0.00 92 1020.5
20260508142246 17 147 1.6 3.2 0.00 0.00 0.00 93 1020.4
20260508141742 17 143 3.2 6.4 0.00 0.00 0.00 93 1020.5
20260508141240 16 152 0.0 0.0 0.00 0.00 0.00 95 1020.8
20260508140737 16 148 1.6 4.8 0.00 0.00 0.00 95 1020.9
20260508140234 16 261 0.0 1.6 0.00 0.00 0.00 96 1020.9
20260508135730 16 262 0.0 1.6 0.00 0.00 0.00 96 1020.9
20260508135226 16 264 1.6 1.6 0.00 0.00 0.00 97 1021.2
20260508134721 16 262 0.0 1.6 0.00 0.00 0.00 97 1021.2
20260508134219 15 262 0.0 0.0 0.00 0.00 0.00 97 1021.2
20260508133716 15 262 1.6 3.2 0.00 0.00 0.00 97 1021.2
20260508133214 14 261 1.6 3.2 0.00 0.00 0.00 97 1021.2
20260508132711 14 262 0.0 0.0 0.00 0.00 0.00 98 1021.2
20260508132208 14 262 0.0 0.0 0.00 0.00 0.00 98 1021.1
20260508131703 13 262 0.0 1.6 0.00 0.00 0.00 98 1021.2
20260508131200 13 262 0.0 1.6 0.00 0.00 0.00 98 1021.0
20260508130657 13 262 0.0 0.0 0.00 0.00 0.00 98 1021.0
20260508130154 12 262 1.6 1.6 0.00 0.00 0.00 98 1020.9
20260508125649 12 262 3.2 3.2 0.00 0.00 0.00 98 1020.9
20260508125146 11 261 0.0 1.6 0.00 0.00 0.00 98 1020.8
20260508124645 11 261 0.0 0.0 0.00 0.00 0.00 98 1021.0
20260508124141 11 261 0.0 0.0 0.00 0.00 0.00 98 1020.8
20260508123640 11 261 0.0 0.0 0.00 0.00 0.00 98 1020.6
20260508123137 10 261 0.0 0.0 0.00 0.00 0.00 98 1020.5
20260508122633 10 261 0.0 1.6 0.00 0.00 0.00 98 1020.6
20260508122130 10 262 1.6 1.6 0.00 0.00 0.00 98 1020.3
20260508121628 10 262 1.6 1.6 0.00 0.00 0.00 98 1020.5
20260508121126 10 262 0.0 0.0 0.00 0.00 0.00 98 1020.0
20260508120623 9 262 0.0 1.6 0.00 0.00 0.00 98 1020.3
20260508120122 9 262 0.0 0.0 0.00 0.00 0.00 98 1020.0
20260508115619 9 262 0.0 0.0 0.00 0.00 0.00 97 1020.0
20260508115116 8 263 0.0 0.0 0.00 0.00 0.00 97 1019.9
20260508114613 8 262 0.0 0.0 0.00 0.00 0.00 97 1019.8
20260508114108 8 262 0.0 0.0 0.00 0.00 0.00 97 1019.7
20260508113606 8 262 0.0 0.0 0.00 0.00 0.00 97 1019.8
20260508113105 8 263 0.0 0.0 0.00 0.00 0.00 97 1019.7
20260508112600 8 262 0.0 0.0 0.00 0.00 0.00 97 1019.6
20260508112057 8 263 0.0 0.0 0.00 0.00 0.00 97 1019.6
20260508111554 8 263 0.0 0.0 0.00 0.00 0.00 97 1019.3
20260508111051 7 263 0.0 0.0 0.00 0.00 0.00 97 1019.3
20260508110549 7 263 0.0 0.0 0.00 0.00 0.00 97 1019.2
20260508110044 7 264 0.0 0.0 0.00 0.00 0.00 97 1019.1
20260508105539 7 264 0.0 0.0 0.00 0.00 0.00 97 1018.7
20260508105037 7 264 0.0 0.0 0.00 0.00 0.00 97 1018.6
20260508104535 7 264 0.0 0.0 0.00 0.00 0.00 97 1018.6
20260508104031 7 264 0.0 0.0 0.00 0.00 0.00 97 1018.5
20260508103528 7 264 0.0 0.0 0.00 0.00 0.00 97 1018.7
20260508103026 7 264 0.0 0.0 0.00 0.00 0.00 97 1018.5
20260508102523 7 264 0.0 0.0 0.00 0.00 0.00 97 1018.5
20260508102021 7 265 0.0 0.0 0.00 0.00 0.00 97 1018.3
20260508101518 7 265 0.0 0.0 0.00 0.00 0.00 97 1018.1
20260508101015 8 265 0.0 0.0 0.00 0.00 0.00 96 1018.4
20260508100513 8 265 0.0 0.0 0.00 0.00 0.00 97 1018.1
20260508100010 8 265 0.0 0.0 0.00 0.00 0.00 96 1018.0
20260508095507 8 265 0.0 0.0 0.00 0.00 0.00 96 1018.4
20260508095003 7 265 0.0 0.0 0.00 0.00 0.00 96 1018.1
20260508094501 7 265 0.0 1.6 0.00 0.00 0.00 96 1018.0
20260508093957 7 265 0.0 1.6 0.00 0.00 0.00 96 1018.2
20260508093454 8 265 0.0 1.6 0.00 0.00 0.00 96 1017.7
20260508092952 8 265 0.0 0.0 0.00 0.00 0.00 96 1017.5
20260508092449 8 265 0.0 0.0 0.00 0.00 0.00 96 1017.5
20260508091948 8 265 0.0 0.0 0.00 0.00 0.00 96 1017.6
20260508091444 8 265 0.0 0.0 0.00 0.00 0.00 96 1017.5
20260508090942 8 265 0.0 0.0 0.00 0.00 0.00 96 1017.6
20260508090440 8 267 0.0 0.0 0.00 0.00 0.00 96 1017.8
20260508085936 8 267 0.0 0.0 0.00 0.00 0.00 96 1017.4
20260508085432 8 267 0.0 0.0 0.00 0.00 0.00 96 1017.5
20260508084929 8 267 0.0 0.0 0.00 0.00 0.00 96 1017.6
20260508084425 8 267 0.0 0.0 0.00 0.00 0.00 96 1017.6
20260508083918 8 267 0.0 1.6 0.00 0.00 0.00 96 1017.2
20260508083415 8 267 0.0 0.0 0.00 0.00 0.00 96 1017.5
20260508082914 8 267 0.0 0.0 0.00 0.00 0.00 96 1017.5
20260508082412 8 267 0.0 0.0 0.00 0.00 0.00 95 1017.1
20260508081910 8 267 0.0 0.0 0.00 0.00 0.00 95 1017.2
20260508081406 8 267 0.0 0.0 0.00 0.00 0.00 95 1017.0
20260508080903 8 267 0.0 0.0 0.00 0.00 0.00 95 1017.2
20260508080401 8 267 0.0 0.0 0.00 0.00 0.00 95 1017.2
20260508075857 8 268 0.0 0.0 0.00 0.00 0.00 95 1017.3
20260508075355 8 268 0.0 0.0 0.00 0.00 0.00 95 1017.3
20260508074852 8 268 0.0 0.0 0.00 0.00 0.00 95 1017.2
20260508074348 8 268 0.0 0.0 0.00 0.00 0.00 95 1017.2
20260508073846 8 268 0.0 0.0 0.00 0.00 0.00 95 1017.1
20260508073344 8 268 0.0 0.0 0.00 0.00 0.00 95 1017.1
20260508072840 9 268 0.0 0.0 0.00 0.00 0.00 95 1017.2
20260508072336 9 268 0.0 0.0 0.00 0.00 0.00 95 1017.4
20260508071834 9 268 0.0 0.0 0.00 0.00 0.00 95 1017.4
20260508071332 9 268 0.0 0.0 0.00 0.00 0.00 95 1017.3
20260508070830 9 268 0.0 0.0 0.00 0.00 0.00 95 1017.2
20260508070328 9 268 0.0 0.0 0.00 0.00 0.00 94 1017.2
20260508065825 9 268 0.0 0.0 0.00 0.00 0.00 94 1017.3
20260508065323 9 268 0.0 0.0 0.00 0.00 0.00 94 1017.2
20260508064820 10 268 0.0 0.0 0.00 0.00 0.00 94 1017.3
20260508064318 10 268 0.0 0.0 0.00 0.00 0.00 94 1017.2
20260508063815 10 268 0.0 0.0 0.00 0.00 0.00 94 1017.4
20260508063313 10 268 0.0 0.0 0.00 0.00 0.00 94 1017.3
20260508062810 10 268 0.0 0.0 0.00 0.00 0.00 94 1017.2
20260508062308 10 268 0.0 0.0 0.00 0.00 0.00 94 1017.3
20260508061804 10 268 0.0 0.0 0.00 0.00 0.00 94 1017.2
20260508061301 10 268 0.0 0.0 0.00 0.00 0.00 93 1017.4
20260508060758 10 268 0.0 0.0 0.00 0.00 0.00 93 1017.3
20260508060256 10 268 0.0 0.0 0.00 0.00 0.00 93 1017.1
20260508055751 10 268 0.0 0.0 0.00 0.00 0.00 93 1017.4
20260508055248 10 268 0.0 0.0 0.00 0.00 0.00 93 1017.4
20260508054744 10 268 0.0 0.0 0.00 0.00 0.00 93 1017.2
20260508054243 10 268 0.0 0.0 0.00 0.00 0.00 93 1017.4
20260508053740 10 268 0.0 0.0 0.00 0.00 0.00 93 1017.4
20260508053237 10 268 0.0 0.0 0.00 0.00 0.00 92 1017.5
20260508052734 11 268 0.0 0.0 0.00 0.00 0.00 92 1017.4
20260508052231 11 268 0.0 0.0 0.00 0.00 0.00 92 1017.5
20260508051727 11 268 0.0 0.0 0.00 0.00 0.00 92 1017.4
20260508051223 11 268 0.0 0.0 0.00 0.00 0.00 92 1017.5
20260508050719 11 268 0.0 0.0 0.00 0.00 0.00 92 1017.4
20260508050218 11 268 0.0 0.0 0.00 0.00 0.00 91 1017.4
20260508045718 11 268 0.0 0.0 0.00 0.00 0.00 91 1017.2
20260508045216 11 268 0.0 0.0 0.00 0.00 0.00 91 1017.3
20260508044713 11 268 0.0 0.0 0.00 0.00 0.00 91 1017.3
20260508044210 11 268 0.0 0.0 0.00 0.00 0.00 90 1017.4
20260508043705 11 268 0.0 0.0 0.00 0.00 0.00 90 1017.2
20260508043204 11 268 0.0 0.0 0.00 0.00 0.00 90 1017.2
20260508042700 11 269 0.0 0.0 0.00 0.00 0.00 90 1017.3
20260508042157 12 269 0.0 0.0 0.00 0.00 0.00 90 1017.1
20260508041653 12 268 0.0 0.0 0.00 0.00 0.00 89 1017.2
20260508041150 12 268 0.0 0.0 0.00 0.00 0.00 89 1017.0
20260508040647 12 268 0.0 1.6 0.00 0.00 0.00 89 1017.3
20260508040144 12 268 0.0 0.0 0.00 0.00 0.00 88 1017.2
20260508035642 12 268 0.0 0.0 0.00 5.74 5.74 88 1017.0
20260508035139 12 268 0.0 0.0 0.00 5.74 5.74 88 1017.0
20260508034636 12 268 0.0 0.0 0.00 5.74 5.74 87 1016.9
20260508034132 12 268 0.0 0.0 0.00 5.74 5.74 87 1016.9
20260508033630 13 268 0.0 0.0 0.00 5.74 5.74 86 1016.7
20260508033128 13 268 0.0 0.0 0.00 5.74 5.74 86 1016.7
20260508032624 13 268 0.0 0.0 0.00 5.74 5.74 85 1016.7
20260508032122 13 268 0.0 0.0 0.00 5.74 5.74 85 1017.1
20260508031619 13 268 0.0 0.0 0.00 5.74 5.74 84 1016.8
20260508031115 13 269 0.0 0.0 0.00 5.74 5.74 83 1017.0
20260508030611 14 269 0.0 0.0 0.00 5.74 5.74 83 1016.8
20260508030110 14 269 0.0 0.0 0.00 5.74 5.74 83 1016.9
20260508025605 14 269 0.0 4.8 0.00 5.74 5.74 82 1016.8
20260508025103 14 261 0.0 1.6 0.00 5.74 5.74 82 1016.7
20260508024558 14 262 0.0 1.6 0.00 5.74 5.74 81 1016.6
20260508024056 15 250 0.0 0.0 0.00 5.74 5.74 81 1016.7
20260508023552 15 251 0.0 1.6 0.00 5.74 5.74 80 1016.4
20260508023050 15 277 0.0 0.0 0.00 5.74 5.74 80 1016.5
20260508022545 15 277 0.0 1.6 0.00 5.74 5.74 79 1016.3